Retour au catalogue

STARLINK-6124

ActifCommunicationsVLEO
NORAD 56126·PAYLOAD·🇺🇸 United States

Lancé Mar 29, 2023 depuis Cape Canaveral Space Force Station

Loading…

Prochains Passages (prochaines 24 heures)

TLE

FraisSource: CelesTrak SupGP

Époque: Sep 14, 2026, 20:46 UTC

1 56126C 23046AK  26257.86576389 -.00032678  00000+0 -11836-2 0  2574
2 56126  42.9999 158.6184 0001239 261.1475  49.5275 15.27593975    14

Suivez STARLINK-6124 en temps réel avec AllMySat

Download on the App Store